N421W LRCV-LRTR

Flight info

Callsign N421W
Flight time 0h 57m
Altitude 28000
Route TITEK DCT LAMIT DCT NEKUL
Aircraft B60T/L-SDFGRY/C

Departure

Time 2026-05-04 07:15
Airport Craiova International Airport (LRCV)

Arrival

Time 2026-05-04 08:13
Airport Timișoara Traian Vuia International Airport (LRTR)
Time Latitude Longitude Altitude Speed Heading
2026-05-04 06:52 44.31363 23.87905 624 ft 0 kts 89°
2026-05-04 07:09 44.31359 23.87871 624 ft 15 kts 295°
2026-05-04 07:10 44.31445 23.87844 628 ft 8 kts 357°
2026-05-04 07:10 44.31491 23.87841 627 ft 8 kts 358°
2026-05-04 07:12 44.31606 23.88962 625 ft 15 kts 91°
2026-05-04 07:12 44.31608 23.89073 625 ft 9 kts 89°
2026-05-04 07:12 44.31609 23.89148 625 ft 7 kts 88°
2026-05-04 07:12 44.31611 23.89203 627 ft 5 kts 69°
2026-05-04 07:13 44.31624 23.89220 625 ft 0 kts 20°
2026-05-04 07:13 44.31625 23.89221 633 ft 2 kts 20°
2026-05-04 07:13 44.31679 23.89222 627 ft 14 kts 353°
2026-05-04 07:14 44.31822 23.89115 627 ft 35 kts 268°
2026-05-04 07:14 44.31809 23.88356 644 ft 111 kts 270°
2026-05-04 07:15 44.31693 23.87315 1219 ft 122 kts 263°
2026-05-04 07:15 44.31614 23.86079 1745 ft 138 kts 266°
2026-05-04 07:15 44.31625 23.84678 2212 ft 149 kts 277°
2026-05-04 07:15 44.31701 23.83242 2649 ft 150 kts 276°
2026-05-04 07:16 44.31721 23.81776 3053 ft 151 kts 273°
2026-05-04 07:16 44.31701 23.80298 3405 ft 153 kts 272°
2026-05-04 07:16 44.31680 23.78794 3793 ft 155 kts 272°
2026-05-04 07:16 44.31660 23.77279 4191 ft 157 kts 272°
2026-05-04 07:17 44.31638 23.75763 4538 ft 159 kts 272°
2026-05-04 07:17 44.31625 23.74214 4910 ft 159 kts 277°
2026-05-04 07:17 44.31972 23.72788 5218 ft 154 kts 308°
2026-05-04 07:17 44.32718 23.71760 5594 ft 149 kts 334°
2026-05-04 07:18 44.33610 23.71010 5982 ft 150 kts 334°
2026-05-04 07:18 44.34497 23.70234 6328 ft 151 kts 334°
2026-05-04 07:18 44.35390 23.69462 6713 ft 151 kts 335°
2026-05-04 07:18 44.36288 23.68685 7054 ft 152 kts 336°
2026-05-04 07:19 44.36882 23.68172 7291 ft 152 kts 336°
2026-05-04 07:19 44.37780 23.67395 7628 ft 152 kts 336°
2026-05-04 07:19 44.38678 23.66619 7959 ft 152 kts 336°
2026-05-04 07:19 44.39575 23.65844 8314 ft 151 kts 337°
2026-05-04 07:20 44.40764 23.64818 8802 ft 151 kts 338°
2026-05-04 07:20 44.41369 23.64293 9043 ft 151 kts 338°
2026-05-04 07:20 44.42268 23.63514 9412 ft 152 kts 339°
2026-05-04 07:20 44.43154 23.62748 9764 ft 154 kts 339°
2026-05-04 07:22 44.50341 23.57069 11865 ft 165 kts 357°
2026-05-04 07:22 44.51464 23.56712 12177 ft 166 kts 355°
2026-05-04 07:23 44.52589 23.56339 12480 ft 166 kts 355°
2026-05-04 07:23 44.53701 23.55980 12779 ft 166 kts 355°
2026-05-04 07:23 44.54826 23.55615 13086 ft 166 kts 355°
2026-05-04 07:23 44.55954 23.55251 13400 ft 166 kts 355°
2026-05-04 07:24 44.57081 23.54886 13709 ft 166 kts 355°
2026-05-04 07:24 44.58207 23.54522 14008 ft 166 kts 355°
2026-05-04 07:24 44.59332 23.54157 14281 ft 166 kts 355°
2026-05-04 07:24 44.60457 23.53793 14557 ft 166 kts 355°
2026-05-04 07:25 44.61584 23.53427 14831 ft 166 kts 355°
2026-05-04 07:26 44.69624 23.50820 16465 ft 173 kts 356°
2026-05-04 07:27 44.70799 23.50438 16691 ft 173 kts 356°
2026-05-04 07:27 44.71976 23.50056 16923 ft 173 kts 356°
2026-05-04 07:27 44.73138 23.49677 17139 ft 174 kts 356°
2026-05-04 07:27 44.74318 23.49294 17366 ft 174 kts 356°
2026-05-04 07:28 44.75497 23.48910 17588 ft 174 kts 356°
2026-05-04 07:28 44.76676 23.48525 17820 ft 174 kts 356°
2026-05-04 07:28 44.77857 23.48140 18054 ft 175 kts 356°
2026-05-04 07:28 44.79043 23.47756 18262 ft 175 kts 357°
2026-05-04 07:29 44.80244 23.47365 18501 ft 179 kts 356°
2026-05-04 07:29 44.81467 23.46967 18736 ft 181 kts 356°
2026-05-04 07:29 44.82693 23.46567 18976 ft 181 kts 356°
2026-05-04 07:29 44.83915 23.46164 19306 ft 176 kts 356°
2026-05-04 07:30 44.85090 23.45774 19673 ft 171 kts 357°
2026-05-04 07:30 44.86239 23.45399 20000 ft 168 kts 357°
2026-05-04 07:30 44.87367 23.45032 20320 ft 165 kts 357°
2026-05-04 07:30 44.88485 23.44667 20661 ft 164 kts 357°
2026-05-04 07:31 44.89590 23.44306 20964 ft 163 kts 358°
2026-05-04 07:31 44.90679 23.43949 21287 ft 161 kts 358°
2026-05-04 07:33 44.99045 23.41219 22126 ft 202 kts 356°
2026-05-04 07:33 45.00422 23.40765 22129 ft 205 kts 355°
2026-05-04 07:33 45.01820 23.40306 22129 ft 207 kts 355°
2026-05-04 07:33 45.03220 23.39845 22127 ft 209 kts 355°
2026-05-04 07:34 45.04449 23.39441 22131 ft 209 kts 355°
2026-05-04 07:34 45.05869 23.38974 22130 ft 210 kts 355°
2026-05-04 07:34 45.07275 23.38510 22125 ft 210 kts 355°
2026-05-04 07:34 45.08707 23.38038 22125 ft 211 kts 355°
2026-05-04 07:35 45.10104 23.37332 22126 ft 221 kts 338°
2026-05-04 07:35 45.11287 23.35844 22126 ft 236 kts 318°
2026-05-04 07:35 45.12269 23.33972 22127 ft 237 kts 316°
2026-05-04 07:35 45.13254 23.32090 22126 ft 237 kts 317°
2026-05-04 07:36 45.14244 23.30225 22129 ft 237 kts 317°
2026-05-04 07:36 45.15222 23.28385 22126 ft 237 kts 317°
2026-05-04 07:38 45.22411 23.16116 22129 ft 208 kts 356°
2026-05-04 07:38 45.23823 23.15935 22128 ft 208 kts 354°
2026-05-04 07:38 45.25088 23.14876 22129 ft 227 kts 322°
2026-05-04 07:38 45.25848 23.12813 22134 ft 246 kts 295°
2026-05-04 07:39 45.26238 23.10424 22140 ft 250 kts 290°
2026-05-04 07:39 45.26619 23.08008 22134 ft 251 kts 293°
2026-05-04 07:39 45.27080 23.05618 22130 ft 250 kts 295°
2026-05-04 07:39 45.27588 23.03250 22136 ft 251 kts 296°
2026-05-04 07:40 45.28108 23.00884 22134 ft 252 kts 296°
2026-05-04 07:40 45.28629 22.98505 22133 ft 253 kts 295°
2026-05-04 07:40 45.29016 22.96040 22134 ft 258 kts 288°
2026-05-04 07:40 45.29314 22.93520 22127 ft 258 kts 287°
2026-05-04 07:41 45.29595 22.91044 22125 ft 257 kts 287°
2026-05-04 07:41 45.29878 22.88542 22128 ft 257 kts 287°
2026-05-04 07:41 45.30160 22.86034 22125 ft 257 kts 287°
2026-05-04 07:41 45.30442 22.83531 22113 ft 257 kts 286°
2026-05-04 07:42 45.30538 22.80962 22093 ft 267 kts 271°
2026-05-04 07:42 45.29977 22.78402 22053 ft 279 kts 240°
2026-05-04 07:42 45.28489 22.76636 21796 ft 284 kts 194°
2026-05-04 07:42 45.26664 22.76881 21590 ft 256 kts 136°
2026-05-04 07:43 45.26029 22.78866 21340 ft 218 kts 71°
2026-05-04 07:43 45.27140 22.80009 20973 ft 230 kts 359°
2026-05-04 07:43 45.28268 22.78326 20707 ft 277 kts 282°
2026-05-04 07:43 45.27516 22.75778 20590 ft 287 kts 238°
2026-05-04 07:44 45.26819 22.73238 20723 ft 269 kts 269°
2026-05-04 07:44 45.26903 22.70668 20823 ft 257 kts 285°
2026-05-04 07:44 45.27175 22.68159 20829 ft 257 kts 287°
2026-05-04 07:44 45.27469 22.65670 20819 ft 256 kts 287°
2026-05-04 07:45 45.27766 22.63168 20828 ft 256 kts 287°
2026-05-04 07:45 45.28065 22.60675 20828 ft 256 kts 287°
2026-05-04 07:45 45.28364 22.58182 20825 ft 256 kts 287°
2026-05-04 07:45 45.28659 22.55692 20818 ft 255 kts 287°
2026-05-04 07:46 45.28958 22.53197 20808 ft 255 kts 287°
2026-05-04 07:46 45.29245 22.50800 21082 ft 243 kts 287°
2026-05-04 07:46 45.29511 22.48449 21423 ft 231 kts 287°
2026-05-04 07:46 45.29749 22.46251 21663 ft 228 kts 287°
2026-05-04 07:47 45.29988 22.44000 21835 ft 231 kts 287°
2026-05-04 07:47 45.30227 22.41742 22016 ft 232 kts 287°
2026-05-04 07:47 45.30461 22.39458 22140 ft 233 kts 287°
2026-05-04 07:49 45.33467 22.23213 22154 ft 244 kts 303°
2026-05-04 07:49 45.34160 22.21002 22158 ft 246 kts 302°
2026-05-04 07:49 45.34841 22.18773 22157 ft 246 kts 302°
2026-05-04 07:50 45.35523 22.16533 22159 ft 246 kts 302°
2026-05-04 07:50 45.36200 22.14312 22157 ft 246 kts 302°
2026-05-04 07:50 45.36886 22.12067 22161 ft 246 kts 302°
2026-05-04 07:50 45.37577 22.09842 22155 ft 244 kts 306°
2026-05-04 07:51 45.38651 22.08149 22168 ft 222 kts 339°
2026-05-04 07:51 45.40071 22.07580 22165 ft 211 kts 355°
2026-05-04 07:51 45.41406 22.06574 22167 ft 230 kts 323°
2026-05-04 07:51 45.42302 22.04645 22170 ft 242 kts 305°
2026-05-04 07:52 45.43014 22.02459 22169 ft 244 kts 302°
2026-05-04 07:52 45.43705 22.00247 22168 ft 245 kts 302°
2026-05-04 07:52 45.44205 21.97898 22164 ft 248 kts 295°
2026-05-04 07:52 45.44933 21.95739 22163 ft 241 kts 306°
2026-05-04 07:53 45.45694 21.93587 22169 ft 243 kts 304°
2026-05-04 07:54 45.50903 21.78381 22163 ft 244 kts 304°
2026-05-04 07:55 45.51651 21.76207 22163 ft 244 kts 304°
2026-05-04 07:55 45.52513 21.74159 22161 ft 238 kts 313°
2026-05-04 07:55 45.53482 21.72221 21928 ft 246 kts 312°
2026-05-04 07:55 45.54434 21.70111 21570 ft 258 kts 308°
2026-05-04 07:56 45.55360 21.67873 21232 ft 264 kts 308°
2026-05-04 07:56 45.56306 21.65612 20902 ft 267 kts 308°
2026-05-04 07:56 45.57269 21.63373 20584 ft 268 kts 308°
2026-05-04 07:56 45.58247 21.61094 20250 ft 267 kts 308°
2026-05-04 07:57 45.59190 21.58869 19897 ft 260 kts 308°
2026-05-04 07:57 45.60127 21.56662 19429 ft 258 kts 308°
2026-05-04 07:57 45.61063 21.54470 18960 ft 258 kts 308°
2026-05-04 07:57 45.61994 21.52282 18501 ft 258 kts 308°
2026-05-04 07:58 45.62925 21.50090 17981 ft 257 kts 307°
2026-05-04 07:58 45.63851 21.47908 17479 ft 256 kts 307°
2026-05-04 07:58 45.64771 21.45736 16984 ft 255 kts 307°
2026-05-04 07:58 45.65689 21.43572 16513 ft 254 kts 307°
2026-05-04 07:59 45.66605 21.41411 16049 ft 253 kts 307°
2026-05-04 07:59 45.67511 21.39268 15591 ft 251 kts 307°
2026-05-04 07:59 45.68403 21.37158 15161 ft 250 kts 307°
2026-05-04 07:59 45.69303 21.35029 14720 ft 249 kts 306°
2026-05-04 08:00 45.70201 21.32904 14172 ft 248 kts 306°
2026-05-04 08:00 45.71083 21.30796 13554 ft 245 kts 303°
2026-05-04 08:00 45.71708 21.28506 12926 ft 246 kts 292°
2026-05-04 08:02 45.75578 21.13003 8935 ft 228 kts 292°
2026-05-04 08:02 45.76100 21.10910 8386 ft 211 kts 292°
2026-05-04 08:02 45.76562 21.09042 7850 ft 195 kts 291°
2026-05-04 08:03 45.77006 21.07252 7317 ft 188 kts 291°
2026-05-04 08:03 45.77443 21.05496 6818 ft 185 kts 290°
2026-05-04 08:03 45.77875 21.03766 6318 ft 183 kts 290°
2026-05-04 08:03 45.78302 21.02036 5648 ft 185 kts 290°
2026-05-04 08:04 45.78732 21.00306 5075 ft 181 kts 290°
2026-05-04 08:04 45.79282 20.98724 4511 ft 177 kts 315°
2026-05-04 08:04 45.80350 20.97999 3987 ft 171 kts 359°
2026-05-04 08:04 45.81432 20.98511 3505 ft 166 kts 42°
2026-05-04 08:05 45.82005 20.99871 3182 ft 153 kts 69°
2026-05-04 08:05 45.82243 21.00785 3175 ft 143 kts 69°
2026-05-04 08:05 45.82921 21.02323 3172 ft 138 kts 51°
2026-05-04 08:05 45.83547 21.03357 3171 ft 138 kts 46°
2026-05-04 08:06 45.84217 21.04351 3172 ft 137 kts 46°
2026-05-04 08:06 45.84658 21.04996 3184 ft 133 kts 45°
2026-05-04 08:06 45.85292 21.05931 3168 ft 131 kts 46°
2026-05-04 08:06 45.85931 21.06878 3127 ft 135 kts 46°
2026-05-04 08:08 45.85695 21.14967 2810 ft 134 kts 108°
2026-05-04 08:08 45.85380 21.16224 2627 ft 135 kts 107°
2026-05-04 08:10 45.82992 21.25777 1239 ft 99 kts 109°
2026-05-04 08:11 45.82770 21.26668 1109 ft 94 kts 109°
2026-05-04 08:11 45.82322 21.28458 852 ft 93 kts 109°
2026-05-04 08:11 45.82108 21.29314 729 ft 90 kts 109°
2026-05-04 08:12 45.81899 21.30151 620 ft 88 kts 109°
2026-05-04 08:12 45.81694 21.30981 487 ft 88 kts 109°
2026-05-04 08:12 45.81485 21.31788 377 ft 86 kts 110°
2026-05-04 08:12 45.81287 21.32585 340 ft 81 kts 109°
2026-05-04 08:13 45.81144 21.33152 337 ft 48 kts 109°
2026-05-04 08:13 45.81076 21.33418 337 ft 13 kts 110°
2026-05-04 08:13 45.80998 21.33567 337 ft 21 kts 167°
2026-05-04 08:13 45.80905 21.33533 335 ft 12 kts 201°
2026-05-04 08:14 45.80865 21.33426 336 ft 14 kts 278°
2026-05-04 08:14 45.80893 21.33305 336 ft 13 kts 291°
2026-05-04 08:14 45.80924 21.33189 336 ft 12 kts 290°
2026-05-04 08:16 45.81084 21.32464 334 ft 4 kts 236°
2026-05-04 08:16 45.81061 21.32415 336 ft 7 kts 236°
2026-05-04 08:16 45.81063 21.32358 334 ft 6 kts 290°
2026-05-04 08:17 45.81076 21.32304 334 ft 6 kts 290°
2026-05-04 08:17 45.81090 21.32251 335 ft 6 kts 290°
2026-05-04 08:17 45.81103 21.32197 335 ft 6 kts 290°
2026-05-04 08:17 45.81118 21.32141 335 ft 6 kts 290°
2026-05-04 08:19 45.81101 21.31964 336 ft 0 kts 200°